RH
53 53 52 49 48 47 44 44 46 49 52 55 58 58 58 61 66 70 70 69 71 74 75 71 70 70 70 71 71 71 69 67 66 67 69 69 68 68 70 70 68 68
53 52 51 49 48 45 44 45 45 45 47 51 52 52 54 58 63 66 68 70 71 72 74 74 74 72 70 69 69 70 71 68 67 68 69 71 70 68 69 70 69 69
53 53 51 49 47 43 43 47 47 44 43 47 49 49 53 57 60 62 64 67 69 70 72 73 76 75 72 70 68 69 70 70 71 71 71 73 72 70 69 70 70 71
53 52 51 49 47 42 41 45 48 46 43 45 48 48 51 55 58 60 62 64 66 68 69 70 72 74 74 73 70 68 67 68 70 72 72 72 72 72 70 70 70 71
52 51 51 50 49 45 41 43 47 47 45 45 46 47 50 53 57 59 60 62 63 65 67 67 67 70 73 75 74 71 67 65 65 68 71 71 71 73 71 70 70 70
55 52 52 52 52 50 46 44 45 46 44 44 44 45 47 51 56 58 56 55 59 63 64 65 65 66 69 73 75 75 72 68 64 65 67 66 66 71 72 71 69 68
59 54 52 52 53 54 52 47 44 44 43 42 43 43 45 48 50 52 50 48 52 61 63 63 64 64 65 68 73 76 75 72 70 70 68 63 62 69 73 72 71 69
62 58 54 52 53 54 55 52 48 45 42 40 41 41 42 44 44 45 46 45 48 56 60 61 62 63 63 66 70 75 76 75 76 78 75 68 65 67 68 71 74 71
63 62 58 55 53 53 53 53 51 48 45 43 40 39 39 40 41 41 42 45 47 51 54 58 61 62 63 64 66 71 75 75 77 79 77 74 70 67 65 67 72 71
63 63 61 59 56 54 52 51 51 50 49 48 44 42 41 39 39 39 40 45 50 51 52 55 59 61 63 64 64 66 71 74 75 77 76 73 69 66 65 67 69 68
64 62 62 61 58 55 53 50 50 48 48 49 48 48 47 44 42 42 42 47 52 54 54 54 56 59 61 63 63 64 67 71 74 76 75 72 68 64 65 68 69 66
64 62 61 61 59 56 53 51 49 48 46 47 48 49 50 50 49 47 46 48 50 53 55 55 55 57 60 61 62 64 68 70 73 75 75 73 69 65 66 69 69 65
62 61 60 60 60 58 55 52 49 48 46 44 44 45 48 50 51 52 51 49 48 49 51 54 56 58 60 61 62 65 69 72 74 76 75 74 71 67 67 69 70 65
62 61 59 58 58 58 56 54 51 49 47 45 44 43 44 45 47 49 51 51 50 49 49 51 55 59 61 62 64 66 69 71 73 75 76 74 73 70 67 67 68 65
63 62 61 59 58 57 56 56 53 51 48 46 45 44 43 44 44 45 48 51 53 52 51 53 56 60 62 62 64 66 68 70 71 73 74 73 73 73 70 68 67 66
65 64 63 61 59 58 57 55 54 52 50 48 47 45 45 45 45 46 48 50 52 54 55 56 58 60 61 61 62 63 65 69 70 71 73 73 72 73 72 70 69 68
67 67 66 65 62 60 58 57 55 53 51 50 48 47 47 47 47 48 49 50 52 54 56 59 60 61 61 61 61 62 63 67 70 71 72 72 72 72 71 69 68 67
69 69 69 68 66 64 62 60 57 55 53 51 50 49 49 50 50 50 51 52 54 56 58 59 61 61 61 61 61 63 64 65 68 70 71 72 72 71 69 67 66 65
71 71 72 70 69 68 66 64 62 59 56 54 52 51 51 53 54 53 53 54 55 58 59 60 61 61 61 61 61 62 64 66 67 68 69 70 70 69 68 66 66 66
71 72 72 72 71 70 69 68 66 63 60 57 55 54 54 55 57 56 56 56 56 58 60 61 62 62 61 61 61 61 63 65 67 68 68 69 68 68 68 67 66 67
70 72 72 72 71 71 70 69 68 66 64 61 58 57 56 56 58 59 59 58 58 59 61 62 62 62 62 62 61 62 63 65 68 69 69 69 68 68 68 67 67 67
68 70 72 72 71 72 71 71 70 68 66 64 61 59 58 58 59 60 60 60 60 60 61 63 62 62 63 63 62 62 64 66 69 70 70 71 69 69 69 68 68 68
67 69 72 72 72 72 71 71 71 69 68 66 64 62 60 60 61 62 62 61 62 62 62 63 63 63 63 63 62 63 64 67 70 70 71 72 70 70 70 69 69 69
64 68 70 71 71 72 71 71 70 70 69 67 65 64 61 61 61 63 63 63 63 63 63 63 64 63 63 63 62 62 64 66 69 71 72 73 73 72 72 71 70 68
61 64 68 70 70 70 70 71 70 69 69 68 66 65 62 61 61 62 64 64 64 64 63 63 64 63 63 64 63 63 64 65 68 72 74 75 75 75 75 75 73 71
61 63 65 67 69 69 69 70 69 69 69 67 67 65 63 62 61 62 64 64 64 64 64 63 64 64 64 63 63 63 64 65 68 73 75 75 76 78 79 79 78 75
Wind_Speed
39 37 37 39 38 37 36 34 34 33 31 30 30 28 27 27 27 26 25 23 22 21 18 17 18 18 16 16 14 12 14 16 14 11 10 10 10 12 13 12 10 9
40 38 37 38 39 38 37 35 35 34 33 32 31 29 28 27 27 27 27 25 23 22 21 18 18 17 17 18 18 14 13 16 17 14 13 12 10 11 13 14 12 10
40 39 38 39 40 40 38 36 35 35 34 33 32 30 29 28 27 27 27 26 24 23 22 21 20 19 19 19 20 19 16 16 17 15 14 14 12 11 12 14 13 11
42 40 39 40 41 41 40 37 36 35 34 33 32 31 29 29 27 26 25 25 24 23 23 22 22 21 21 21 21 21 20 19 18 16 15 15 14 13 12 13 14 13
44 43 41 40 41 41 40 38 37 36 35 34 33 31 30 29 28 26 25 24 24 24 24 24 23 23 23 23 23 23 23 22 21 20 19 18 17 15 14 14 15 15
44 43 42 41 40 40 41 41 40 38 36 35 34 33 31 30 29 28 27 26 25 26 26 25 25 25 25 25 25 25 24 24 23 22 22 22 20 18 16 15 16 16
42 43 43 42 41 40 41 42 42 40 39 37 36 35 34 33 32 31 29 28 27 28 28 28 27 27 27 26 26 26 25 25 23 22 22 22 21 21 19 18 17 17
41 42 43 43 41 41 41 42 42 42 41 39 38 37 37 36 35 34 32 30 29 30 30 30 30 29 28 28 27 27 27 26 25 24 23 21 21 22 21 20 19 18
40 40 42 43 42 42 42 42 42 42 42 40 40 40 39 38 37 36 34 32 31 32 32 32 32 32 31 30 29 29 29 28 27 27 26 24 23 22 22 21 21 21
39 39 40 41 42 42 43 43 42 42 41 41 41 40 40 39 39 37 36 34 34 34 34 34 34 34 33 32 31 30 30 30 29 29 29 27 26 24 22 21 21 22
40 40 40 41 42 42 43 43 43 42 41 41 41 40 39 39 39 38 37 36 36 36 36 36 36 36 35 35 34 33 32 32 31 30 30 29 29 27 24 23 22 22
42 41 41 42 42 43 43 43 43 42 41 41 41 40 39 39 39 39 39 39 38 38 37 37 37 37 37 36 35 34 34 33 32 32 31 31 30 29 27 25 24 23
42 43 43 42 42 42 42 42 42 42 41 42 41 41 40 39 39 39 40 40 40 39 39 39 38 38 38 37 37 35 34 34 33 33 33 32 31 30 30 29 27 26
42 43 43 42 42 41 41 41 42 42 42 42 41 41 41 41 40 40 40 40 41 41 40 39 39 39 39 38 37 36 35 34 34 33 33 33 32 31 31 31 30 29
41 41 41 41 40 40 41 42 42 42 42 41 41 41 42 42 41 41 40 40 40 41 41 40 39 39 39 39 38 37 36 35 35 34 34 34 33 32 31 31 31 30
39 39 39 39 40 41 41 42 42 41 41 41 41 41 41 41 41 40 40 40 40 40 40 39 39 39 40 40 40 39 37 36 35 35 35 34 33 33 32 32 31 31
38 39 39 39 40 41 41 42 42 41 41 41 41 41 41 40 40 40 40 40 40 40 40 39 39 39 40 41 42 41 39 37 36 36 35 35 34 34 33 33 33 32
38 39 39 40 40 41 41 41 41 41 40 40 40 40 40 40 40 40 41 40 39 39 40 40 40 40 40 41 42 42 41 38 37 36 36 35 35 35 35 34 33 33
38 39 39 40 41 41 41 40 39 40 40 40 40 40 39 39 40 41 41 40 40 39 39 40 40 41 41 42 42 43 42 40 38 37 36 36 36 36 36 36 35 34
35 37 39 39 40 40 39 39 39 40 41 40 39 39 39 39 40 40 41 41 41 40 40 40 40 41 42 43 43 43 42 41 40 38 36 36 36 36 36 36 36 35
34 36 37 38 38 38 38 39 40 40 40 40 39 38 39 40 40 39 40 41 42 41 40 39 40 41 42 43 44 43 42 41 41 39 37 36 36 36 36 37 37 36
35 36 37 37 37 37 38 39 40 40 40 39 38 37 37 38 38 39 39 40 41 40 39 39 40 41 42 43 44 43 42 41 41 40 38 36 36 36 36 37 37 37
35 34 36 37 37 37 39 40 40 40 39 38 37 36 36 36 37 38 38 39 40 40 40 40 40 41 42 43 44 44 42 41 40 40 39 38 37 37 37 38 38 38
35 34 34 36 37 39 40 39 39 38 38 38 37 37 36 36 36 36 37 38 39 40 41 41 40 41 42 43 44 44 43 42 41 40 39 38 38 38 38 38 39 39
34 34 34 36 38 40 39 38 38 38 37 37 37 37 37 36 35 35 36 37 38 39 40 41 40 40 41 42 43 43 43 43 42 39 38 38 38 37 37 38 39 40
35 35 36 38 39 39 38 37 37 36 35 36 37 36 35 35 34 34 35 36 37 37 39 40 41 40 40 42 43 43 43 44 42 39 38 38 38 37 37 36 38 39
Wind_Direction
202 204 205 204 204 206 205 206 207 206 206 206 206 206 205 205 207 208 210 213 214 215 213 204 201 202 206 211 213 213 220 221 216 213 211 209 212 212 214 218 224 235
202 203 204 204 204 205 206 208 211 210 209 209 210 210 208 207 208 210 211 213 214 216 215 208 204 206 206 209 214 217 218 217 216 216 216 214 213 213 212 212 217 233
203 202 203 203 204 205 206 208 212 212 211 211 212 213 213 211 210 212 213 215 216 217 217 213 211 211 211 210 213 218 217 211 210 213 215 216 219 222 216 211 217 232
204 203 203 204 205 206 207 208 210 212 213 214 213 214 216 214 213 213 214 217 219 220 219 217 215 214 214 215 216 219 221 218 214 212 213 214 218 226 226 222 223 229
205 205 204 204 205 206 207 208 209 210 213 215 215 215 216 216 216 215 216 219 221 223 223 223 222 219 217 219 221 224 225 225 222 219 220 220 219 225 228 229 230 230
206 206 205 205 205 206 208 210 211 211 212 214 215 216 217 217 218 218 220 223 224 225 226 226 227 225 223 223 225 228 229 229 228 224 224 224 222 223 225 229 234 234
207 207 206 206 207 207 209 212 213 213 214 215 216 217 219 219 221 223 225 227 226 226 228 229 229 228 227 226 227 230 232 232 231 227 226 225 222 222 223 226 232 235
208 208 207 207 208 209 211 213 214 215 216 217 217 219 221 222 224 226 227 228 228 228 230 230 230 229 228 227 227 229 232 233 232 230 229 228 224 223 224 225 229 235
210 210 209 208 208 210 212 213 215 216 217 217 219 220 222 224 226 227 227 228 228 229 230 231 231 230 228 228 228 229 231 232 232 231 232 231 230 229 227 226 229 234
211 212 212 211 210 211 213 214 215 217 217 218 219 220 221 223 225 227 228 228 229 229 230 230 229 229 228 228 230 230 231 233 233 232 233 234 234 234 231 229 230 234
210 212 213 214 213 213 214 215 217 217 218 218 219 220 221 222 224 225 226 227 228 229 229 229 228 228 228 228 230 231 231 233 233 233 234 236 237 237 235 233 233 236
209 211 214 216 216 215 216 216 218 219 220 220 220 220 221 222 223 223 224 226 228 229 230 230 229 229 228 228 229 229 230 232 233 234 236 238 238 238 237 237 237 239
209 211 213 216 217 218 218 218 219 221 222 222 223 222 222 222 223 224 224 226 227 229 230 231 230 229 229 229 228 228 229 230 231 233 235 238 240 239 239 239 240 242
211 212 213 215 217 219 220 220 221 222 223 224 224 224 224 223 224 225 225 226 228 229 230 231 231 229 228 228 228 227 227 229 230 232 233 236 239 240 240 240 241 244
211 212 214 215 216 219 220 221 222 223 224 225 226 226 225 225 225 225 226 226 227 228 230 230 230 229 229 228 228 227 226 228 230 231 232 234 236 239 240 241 241 243
211 212 213 214 216 218 220 221 222 223 224 225 226 226 226 226 225 225 226 226 227 227 228 229 229 229 230 230 229 228 227 227 228 229 231 232 234 236 238 239 240 242
210 211 212 214 215 217 219 221 221 222 223 224 225 226 227 226 225 225 225 226 227 227 228 228 228 229 230 231 231 231 229 226 226 228 229 231 233 235 237 239 240 241
209 211 212 213 215 216 218 220 220 221 223 224 225 225 226 225 224 224 224 225 226 227 228 228 229 229 230 231 232 232 231 228 227 228 228 229 231 234 237 240 240 241
209 210 211 213 214 215 217 218 219 220 222 223 224 225 225 225 224 224 224 224 225 226 227 228 229 230 230 231 233 233 232 230 228 228 229 229 231 233 235 238 240 240
210 210 212 213 214 214 215 216 217 219 221 222 224 224 224 225 225 224 224 224 225 226 227 228 229 230 230 231 232 233 233 232 230 229 230 231 232 233 235 237 239 239
212 213 213 214 214 213 214 215 216 218 220 221 222 223 224 225 225 225 224 224 225 225 226 228 229 230 230 231 232 233 233 233 231 230 230 232 233 234 236 238 239 240
213 214 214 213 212 212 213 214 215 217 218 219 221 223 225 225 225 225 225 225 225 225 225 228 230 230 230 230 232 233 233 232 231 230 230 232 234 235 236 238 240 240
216 216 215 214 212 211 213 214 215 216 217 217 218 221 223 224 224 225 225 225 225 224 224 227 229 230 230 230 231 231 231 230 230 230 230 232 234 236 237 238 240 241
220 220 218 216 214 213 214 214 215 216 216 215 216 219 222 224 224 225 225 225 225 225 224 226 229 230 230 231 232 231 230 229 229 229 230 233 235 237 238 239 240 241
224 223 221 218 217 216 216 215 215 216 215 215 216 218 221 223 224 224 224 225 225 225 225 226 228 230 230 231 232 231 230 229 228 228 230 233 235 237 238 239 240 242
229 225 222 220 219 218 217 216 216 215 215 215 215 217 219 221 223 224 224 224 225 225 226 226 227 229 230 231 231 231 230 229 227 226 229 232 234 235 237 238 239 241